Weather in Novoromanovo

Russia / Altai Krai     53°05′22″N   83°22′07″E
temp.,
°C
wind,
m/s
gust,
m/s
humid.,
%
clouds,
%
prec.,
mm/h
press.,
hPa
HPBL,
m
26 october, tue
tue2601:00+6sw385867 0.0 1020128
04:00+5ssw356034 0.0 101972
07:00+4s366172 0.0 101799
10:00+6sse3962100 0.0 1014213
13:00+11s5952100 0.0 1011368
16:00+13sw91731100 0.0 1008957
19:00+12sw9193395 0.0 1008793
22:00+10sw8173844 0.0 1010620
27 october, wed
wed2701:00+5wnw71273100 0.0 1016947
04:00+3wnw61060100 0.0 1021944
07:00+1wnw4766100 0.0 1026599
10:000wnw3460100 0.0 1028557
13:00+2wnw2244100 0.0 1028785
16:00+3w2237100 0.0 1027925
19:00+1wnw2244100 0.0 102820
22:00−1wnw225094 0.0 102917
28 october, thu
thu2801:00−2w225489 0.0 102916
04:00−3w115698 0.0 103010
07:00−2ssw1155100 0.0 103010
10:00−1s124854 0.0 1030107
13:00+3ssw23345 0.0 1029575
16:00+4ssw23290 0.0 1028737
19:00+1s33400 0.0 102830
22:00−1ssw33505 0.0 102744
29 october, fri
fri2901:00−1ssw34735 0.0 102746
04:00−2ssw34885 0.0 102650
07:00−1ssw379326 0.0 1026122
10:00+1ssw4108749 0.0 1026252
13:00+7sw6106356 0.0 1025572
16:00+9sw595527 0.0 1024830
19:00+5ssw410775 0.0 1025192
22:00+4sw413830 0.0 1025247
30 october, sat
sat3001:00+2sw412815 0.0 1025232
04:00+2ssw5148397 0.0 1025292
07:00+2sw61476100 0.0 1025366
10:00+4sw71550100 0.0 1026610
13:00+6wsw81338100 0.0 10261140
16:00+2w71187100 0.0 1029760
19:00+1wnw4882100 0.1 1031507
22:00−1nnw347319 0.0 1032240